User: anonymous   Login
Location: Unspecified
(0.0000°N, 0.0000°E)
Time: 00:17:31
(UTC+00:00)
Language:

LEMUR-2 DRMUZZ - Orbit

View from above orbital plane
View from above orbital plane
View from above satellite
View from above satellite

Ground track
Ground track

The orbit data is extracted from the following two-line orbital elements,

1 41596U 16019C   17067.10015613  .11365953  12547-4  52873-3 0  9994
2 41596  51.6506 142.3048 0005782  47.1381 316.3232 16.42964006 40875
Epoch (UTC): 08 March 2017 02:24:13
Eccentricity: 0.0005782
inclination: 51.6506°
perigee height: 154 km
apogee height: 162 km
right ascension of ascending node: 142.3048°
argument of perigee: 47.1381°
revolutions per day: 16.42964006
mean anomaly at epoch: 316.3232°
orbit number at epoch: 4087

The dashed part of the orbit path shows where the satellite is in the earth's shadow,  

DLR